Location: Unspecified
(0.0000°N, 0.0000°E)
Time: 18:02:50
(UTC+00:00)

Kosmos-2004 - Pass Details

Date: 17 May 2026
Orbit: 969 x 1012 km, 83.0° (Epoch: 10 June)

Event Time Altitude Azimuth Distance (km) Brightness Sun altitude
Rises 05:28:56 0° 207° (SSW) 3,659 8.6 -6.5°
Reaches altitude 10° 05:31:52 10° 219° (SW) 2,710 7.8 -5.8°
Maximum altitude 05:36:50 26° 273° (W) 1,827 7.0 -4.6°
Drops below altitude 10° 05:41:49 10° 327° (NNW) 2,711 8.2 -3.4°
Sets 05:44:46 0° 340° (NNW) 3,661 9.0 -2.7°
